This is the latest recevied weather packets stored in our database for station/object WB4FAY-4. If no packets are shown the sender has not sent any weather packets the latest 1 day(s).
| Time | Temp. | Humidity | Pressure | Rain* | Wind** | Luminosity | Snow |
|---|---|---|---|---|---|---|---|
| 1778018717 | 25° C | 53% | 1013.1 hPa | 0 mm | 0.45 m/s, 258° | - | - |
| 1778018417 | 25° C | 52% | 1013.1 hPa | 0 mm | 0.45 m/s, 263° | - | - |
| 1778018126 | 25° C | 52% | 1013.1 hPa | 0 mm | 0 m/s | - | - |
| 1778017817 | 25° C | 51% | 1013.2 hPa | 0 mm | 1.79 m/s, 178° | - | - |
| 1778017517 | 25° C | 52% | 1013.2 hPa | 0 mm | 0.89 m/s, 232° | - | - |
| 1778017217 | 25° C | 54% | 1013.2 hPa | 0 mm | 1.79 m/s, 215° | - | - |
| 1778016917 | 25° C | 53% | 1013.2 hPa | 0 mm | 0 m/s | - | - |
| 1778016618 | 25° C | 52% | 1013.2 hPa | 0 mm | 0 m/s | - | - |
| 1778016317 | 25.56° C | 51% | 1013.2 hPa | 0 mm | 0 m/s | - | - |
| 1778016018 | 25.56° C | 51% | 1013.1 hPa | 0 mm | 1.79 m/s, 251° | - | - |
| 1778015717 | 25.56° C | 52% | 1013 hPa | 0 mm | 1.79 m/s, 205° | - | - |
| 1778015417 | 25.56° C | 50% | 1013.1 hPa | 0 mm | 0 m/s | - | - |
| 1778015118 | 25.56° C | 52% | 1013.1 hPa | 0 mm | 0.45 m/s, 196° | - | - |
| 1778014817 | 25.56° C | 51% | 1013.1 hPa | 0 mm | 1.34 m/s, 233° | - | - |
| 1778014517 | 25.56° C | 51% | 1013.1 hPa | 0 mm | 0.89 m/s, 210° | - | - |
| 1778014217 | 25.56° C | 50% | 1013.3 hPa | 0 mm | 1.34 m/s, 188° | - | - |
| 1778013917 | 25.56° C | 51% | 1013.3 hPa | 0 mm | 3.13 m/s, 224° | - | - |
| 1778013618 | 25° C | 51% | 1013.1 hPa | 0 mm | 2.24 m/s, 222° | - | - |
| 1778013317 | 25° C | 50% | 1013.3 hPa | 0 mm | 3.58 m/s, 206° | - | - |
| 1778013016 | 25° C | 55% | 1013.3 hPa | 0 mm | 2.24 m/s, 261° | - | - |
| 1778012717 | 25° C | 54% | 1013.3 hPa | 0 mm | 1.34 m/s, 203° | - | - |
| 1778012417 | 25° C | 53% | 1013.3 hPa | 0 mm | 0 m/s | - | - |
| 1778012117 | 25° C | 54% | 1013.6 hPa | 0 mm | 0 m/s | - | - |
| 1778011817 | 25° C | 53% | 1013.7 hPa | 0 mm | 0 m/s | - | - |
| 1778011517 | 24.44° C | 56% | 1013.8 hPa | 0 mm | 1.79 m/s, 196° | - | - |
* Rain latest 24 hours (hover to see other rain measurements)
** Current wind speed in m/s (hover to see current wind gust speed)